{"data":{"norad_id":53173,"epoch":"2026-09-19T22:26:37.720320Z","epoch_age_seconds":121021,"freshness":"FRESH","line1":"1 53173U 22083AT  26262.93515880 -.00002281  00000+0 -54516-4 0  9990","line2":"2 53173  53.1611 334.4051 0000978  81.9147 278.1967 15.35389838231191","mean_motion":15.35389838,"eccentricity":9.78e-5,"inclination_deg":53.1611,"raan_deg":334.4051,"arg_perigee_deg":81.9147,"mean_anomaly_deg":278.1967,"bstar":-5.4516e-5,"rev_number":23119,"period_min":93.787256132667,"perigee_km":459.09406713256,"apogee_km":460.43156033613,"semimajor_km":6837.8998137343,"source":"CELESTRAK","updated_at":"2026-09-20T09:00:40.186288Z"}}